Theta_e
287 288 288 287 287 287 288 289 289 289 289 290 292 293 291 289 288 287 288 289 286 288
286 286 286 285 285 285 287 288 288 288 287 288 288 289 289 288 287 286 287 288 288 288
285 285 285 284 284 284 285 285 285 285 286 286 287 286 286 285 286 285 286 287 286 287
285 285 284 282 282 282 283 283 283 284 284 284 284 285 285 285 285 285 285 285 285 286
284 283 283 282 281 282 282 283 282 283 282 282 283 283 282 283 283 284 284 284 284 285
282 282 281 282 281 281 281 281 282 281 281 280 281 281 282 282 282 282 282 283 284 285
279 280 280 280 280 280 280 280 280 281 281 280 280 280 281 282 281 281 282 283 283 284
279 280 280 279 279 279 279 279 279 279 279 279 279 280 279 281 281 281 282 283 283 283
279 280 280 280 280 280 279 278 278 277 277 277 278 281 283 283 280 281 281 281 282 283
279 278 278 279 278 278 277 278 277 277 277 276 276 280 281 281 280 279 280 280 281 282
276 275 276 275 275 275 275 275 275 276 276 276 276 279 280 280 277 277 278 279 280 281
272 270 271 269 270 270 270 271 271 273 273 273 274 278 278 278 275 275 275 276 277 278
269 266 265 266 265 266 266 267 268 268 269 269 269 273 275 275 273 271 272 274 275 278
266 264 263 263 263 263 263 264 263 264 265 265 266 267 272 273 271 271 271 272 273 275
Wind_Speed
10 6 6 7 6 6 6 6 8 8 7 8 7 6 4 3 5 5 7 10 7 6
7 8 7 6 6 5 6 8 9 9 8 7 7 7 6 4 5 5 6 8 8 8
6 6 5 4 4 5 5 8 10 11 10 10 8 7 6 5 5 5 5 6 7 9
7 9 8 8 7 6 5 5 5 6 9 11 10 9 7 6 7 7 7 7 7 10
3 4 6 6 6 8 10 9 8 7 5 5 6 10 9 7 6 7 8 7 7 10
5 5 6 6 6 7 8 9 10 9 10 11 10 8 9 8 8 7 7 7 8 10
5 6 6 7 7 8 8 9 9 10 10 10 12 12 13 12 8 7 7 8 9 10
4 5 5 6 7 8 9 9 10 10 10 10 11 9 10 12 11 11 11 9 9 10
7 10 13 13 13 12 11 9 9 11 11 13 10 19 22 20 12 12 13 13 12 11
10 11 11 12 13 14 15 16 16 16 14 15 14 23 26 27 15 15 14 15 14 13
8 9 11 13 15 17 16 17 17 19 19 18 17 29 29 29 18 15 17 17 18 17
6 9 12 13 15 16 17 18 18 18 20 19 20 30 32 28 17 17 20 18 19 19
10 8 11 14 15 14 14 17 15 19 19 22 23 30 35 30 15 18 16 19 21 29
10 12 12 13 12 14 14 16 16 18 16 18 19 20 31 31 18 14 15 15 15 15
Wind_Direction
38 35 38 21 10 8 359 344 343 344 349 344 323 297 255 224 226 221 228 234 229 236
27 23 24 25 21 355 347 345 346 344 347 340 341 339 313 274 254 239 237 240 234 235
24 21 19 13 0 343 338 353 348 349 344 339 336 333 336 311 287 265 259 252 236 241
5 3 2 356 343 344 330 328 336 337 337 337 332 325 329 318 296 279 262 254 244 251
333 339 330 323 329 333 332 335 331 327 308 287 303 314 310 297 276 264 266 265 255 255
318 311 294 299 296 303 308 314 314 318 322 322 312 293 281 277 284 283 276 269 260 260
261 262 269 277 280 281 279 282 287 285 284 292 297 298 300 298 286 270 272 275 274 268
284 269 273 263 261 259 253 258 255 263 262 266 267 270 279 276 280 287 285 268 261 262
309 315 317 314 313 306 298 285 271 279 273 272 264 276 287 290 283 278 274 274 270 260
314 308 304 303 304 304 306 306 299 292 287 282 279 286 292 294 289 282 277 272 267 264
306 314 320 315 310 308 305 300 298 296 295 293 291 293 294 296 292 288 283 277 271 264
335 318 313 307 305 304 303 298 296 293 292 291 289 292 293 296 295 290 284 280 276 271
316 312 306 302 299 297 295 292 294 293 293 293 293 295 297 296 288 284 284 281 277 273
312 304 297 294 295 295 293 291 291 289 292 293 293 297 298 296 288 281 278 274 273 270